Location: Kitt Peak
(31.9639°N, 111.5992°W)
Time: 14:29:49
(UTC-07:00)

CAS-4B - Visible Passes

Search period start: 13 September 2024 00:00
Search period end: 23 September 2024 00:00
Orbit: 457 x 475 km, 43.0° (Epoch: 13 September)

Date Brightness Start Highest point End Pass type
(mag) Time Alt. Az. Time Alt. Az. Time Alt. Az.
20 Sep ? 05:45:38 10° SW 05:49:11 51° SE 05:52:46 10° ENE visible
21 Sep ? 05:12:29 14° SSW 05:15:23 43° SE 05:18:53 10° ENE visible
22 Sep ? 04:40:40 32° S 04:41:28 36° SE 04:44:53 10° ENE visible
